This demonstration page uses our WeatherBlox Daily Observations layout. Learn more.

39.92423, -83.80882

Hourly Observations for August 10, 2017

Temp ( °F °C ) Dew Point ( °F °C ) Humidity (%) Winds ( mph kmh ) Pressure ( in mb ) Visibility ( mi km ) Precip ( " mm )
12:56 am 00:56 Clear 58 14.4 57 13.9 97 97 E 3 6 30.19 1022 10 16.0934 0 0
1:56 am 01:56 Clear 59 15 58 14.4 96 96 Calm 30.17 1022 9 14.48406 0 0
2:56 am 02:56 Clear 57 13.9 56 13.3 96 96 ENE 5 7 30.16 1021 7 11.26538 0 0
3:56 am 03:56 Clear 56 13.3 55 12.8 97 97 NE 5 7 30.14 1021 10 16.0934 0 0
4:56 am 04:56 Mostly Clear 55 12.8 54 12.2 96 96 ENE 3 6 30.14 1021 10 16.0934 0 0
5:56 am 05:56 Clear 56 13.3 55 12.8 97 97 ENE 3 6 30.14 1021 10 16.0934 0 0
6:56 am 06:56 Partly Cloudy 56 13.3 55 12.8 97 97 ENE 3 6 30.15 1021 10 16.0934 0 0
7:56 am 07:56 Mostly Sunny 60 15.6 57 13.9 90 90 Calm 30.15 1021 10 16.0934 0 0
8:56 am 08:56 Sunny 66 18.9 59 15 78 78 ESE 5 7 30.15 1021 10 16.0934 0 0
9:56 am 09:56 Sunny 71 21.7 60 15.6 68 68 S 5 7 30.15 1021 10 16.0934 0 0
10:56 am 10:56 Sunny 75 23.9 63 17.2 66 66 WSW 5 7 30.14 1021 10 16.0934 0 0
11:56 am 11:56 Cloudy 77 25 63 17.2 62 62 VRB 3 6 30.14 1021 10 16.0934 0 0
12:56 pm 12:56 Mostly Cloudy 79 26.1 60 15.6 52 52 Calm 30.14 1021 10 16.0934 0 0
1:56 pm 13:56 Mostly Sunny 81 27.2 62 16.7 53 53 Calm 30.12 1020 10 16.0934 0 0
2:56 pm 14:56 Mostly Cloudy 80 26.7 61 16.1 52 52 Calm 30.11 1020 10 16.0934 0 0
3:56 pm 15:56 Sunny 82 27.8 62 16.7 51 51 VRB 3 6 30.09 1019 10 16.0934 0 0
4:56 pm 16:56 Mostly Sunny 81 27.2 60 15.6 49 49 Calm 30.08 1019 10 16.0934 0 0
5:56 pm 17:56 Partly Cloudy 81 27.2 62 16.7 53 53 undefined N/A 30.07 1018 10 16.0934 0 0
6:56 pm 18:56 Sunny 80 26.7 61 16.1 52 52 undefined N/A 30.06 1018 9 14.48406 0 0
7:56 pm 19:56 Mostly Cloudy 77 25 65 18.3 66 66 E 3 6 30.05 1018 10 16.0934 0 0
8:56 pm 20:56 Mostly Clear 73 22.8 64 17.8 74 74 Calm 30.06 1018 10 16.0934 0 0
9:56 pm 21:56 Mostly Clear 70 21.1 64 17.8 82 82 E 6 9 30.06 1018 10 16.0934 0 0
10:56 pm 22:56 Clear 66 18.9 63 17.2 90 90 W 5 7 30.08 1019 10 16.0934 0 0
11:56 pm 23:56 Clear 65 18.3 63 17.2 93 93 SW 3 6 30.06 1018 10 16.0934 0 0

Powered by AerisWeather